User: anonymous   Login
Location: Brno
(49.2000°N, 16.6330°E)
Time: 10:51:25
(UTC+01:00)
Language:

Meteor 1-4 Rocket - Orbit

View from above orbital plane
View from above orbital plane
View from above satellite
View from above satellite

Ground track
Ground track

The orbit data is extracted from the following two-line orbital elements,

1 04394U 70037B   14302.81486005  .00009932  00000-0  42541-3 0  7168
2 04394 081.2462 059.7120 0047511 155.1143 205.2396 15.21602223418179
Epoch (UTC): 29 October 2014 19:33:23
Eccentricity: 0.0047511
inclination: 81.2462°
perigee height: 468 km
apogee height: 533 km
right ascension of ascending node: 59.7120°
argument of perigee: 155.1143°
revolutions per day: 15.21602223
mean anomaly at epoch: 205.2396°
orbit number at epoch: 41817

The dashed part of the orbit path shows where the satellite is in the earth's shadow,  

DLR